STARLINK-32469, 61721

Orbit data source: Space-Track

STARLINK-32469, 61721 is a payload satellite owned by SpaceX/Seattle (US) in LEO that was launched on Wed, 30 Oct 2024 UTC via an FALCON 9 launch vehicle from the Air Force Eastern Test Range (AFETR). Payloads include a variety of satellites, spacecraft, and rockets equipped with specific instruments for various scientific and technological missions. These include communications satellites like Starlink; space stations such as the ISS; scientific satellites like the Hubble; Earth observation satellites from companies like Planet Labs, Umbra, and HawkEye 360; GPS; miniature CubeSats for education and research; and military/defense satellites.

Loading next visibility...
STARLINK-32469 details
Identifier
61721, 2024-196Q
Orbit
LEO
Last TLE update7 hours ago
Origin
Flag of USSpaceX/Seattle (US)
ManufacturerSpaceX/Seattle
MissionOperational spacecraft
Bus & MotorSTARLINK V2M, Unknown motor
Mass730 kg wet, ~700 kg dry
Launch date (UTC)
2024-10-30 (2 months ago)
Launch vehicle
FALCON 9
Launch site
Air Force Eastern Test Range (AFETR)
Object type
Payload
Rocket body
Debris
Shape & HBRUnknown
Radar Cross SectionLarge (>1 m²)

Expand to show TLE details & history

TLE from 7 hours ago
0 STARLINK-32469
1 61721U 24196Q   24361.12183294 -.00003507  00000-0 -77811-4 0  9990
2 61721  53.1626 340.3090 0001942  82.3122 277.8104 15.39586015  9747
Epoch: 2024-12-26T02:55Z
Definitive object data (Epoch: 2024-12-26T02:55:26.365Z)
Latitude
Longitude-158.65662°
Altitude448.056 km
Speed7.645 km/s
True Right ascension22h 41m 14s
True Declination0° 00' 00"
Sunlit
Object was in daylight at TLE epoch
Visualization TLE readout
Latitude-48.36868°
Longitude76.85412°
Altitude465.216 km
Speed7.633 km/s
Apparent Right ascension18h 10m 37s
Apparent Declination-58° 43' 01"
Sunlit
Object is in daylight
Visualization observer readout
Local Sidereal Time09:35:02
Azimuth137.836° SSE
Elevation-52.984°
Doppler factor1
Orbital elements
Apogee altitude448.915 km
Perigee altitude446.264 km
Semi-major axis6,825.727 km
Eccentricity0.0001942
Inclination53.1626°
RAAN340.309°
Arg. of periapsis82.3122°
True anomaly277.78835°
Mean anomaly277.8104°
Eccentric anomaly277.79938°
Mean motion3.84875 °/min
BSTAR-0.000077811
Orbital period93.54 mins
Loading maneuver chart data...
Loading historical data...
Loading historical data...
Loading historical data...
Loading historical data...
Loading historical data...
Loading historical data...
Loading historical data...

STARLINK-32469 Visibility forecast

Observer location: undefined°, undefined

Span
Click to sort rows by Start time (UTC) header in descending order
Start Az.
Max El. time (UTC)
Max El. Az.
Max El.
End time (UTC)
End Az.
5 mins2024-12-27 00:53:53.062Z196.735° SSW2024-12-27 00:56:53.062Z119.167° SE29.665°2024-12-27 00:58:53.062Z73.009° E
5 mins2024-12-27 02:31:53.062Z280.623° WNW2024-12-27 02:33:53.062Z330.381° NNW25.098°2024-12-27 02:36:53.062Z31.056° NE
5 mins2024-12-27 07:26:53.062Z337.351° NNW2024-12-27 07:28:53.062Z30.626° NE28.225°2024-12-27 07:31:53.062Z95.972° ESE
4 mins2024-12-27 09:04:53.062Z264.954° W2024-12-27 09:05:53.062Z236.896° WSW25.343°2024-12-27 09:08:53.062Z169.744° S
|